Weather in Shuarsola

Russia / Mari El Republic     56°47′22″N   48°11′56″E
temp.,
°C
wind,
m/s
gust,
m/s
humid.,
%
clouds,
%
prec.,
mm/h
press.,
hPa
HPBL,
m
7 march, sun
sun700:00−15wsw229887 0.1 101120
03:00−16sw239887 0.2 101130
06:00−16sw239898 0.1 101045
09:00−14ssw349799 0.1 1009167
12:00−9ssw479198 0.0 1007488
15:00−8s699099 0.1 1004655
18:00−8s61294100 0.2 1001697
21:00−8s71294100 1.2 998737
8 march, mon
mon800:00−7sse61294100 1.0 994617
03:00−6sse4995100 1.6 990434
06:00−6se4896100 0.9 988365
09:00−4sse1295100 1.4 989248
12:00−5w91395100 2.6 992817
15:00−5w81189100 3.7 9951004
18:00−7wsw51092100 0.2 998392
21:00−12wsw349394 0.3 100062
9 march, tue
tue900:00−13w2297100 0.1 100120
03:00−13nnw2397100 0.1 100242
06:00−15nnw359689 0.1 1004122
09:00−14nnw369488 0.1 1006286
12:00−12nnw3591100 0.0 1008484
15:00−12nnw3589100 0.1 1010634
18:00−16n3695100 0.1 101199
21:00−19n3698100 0.1 101389
10 march, wed
wed1000:00−21n469988 0.0 1014124
03:00−25n469986 0.1 1016128
06:00−28n479883 0.0 1017109
09:00−26n479554 0.0 1019258
12:00−23n469381 0.0 1020376
15:00−20nnw468959 0.0 1020423
18:00−23wnw33951 0.0 102121
21:00−24wnw349611 0.0 102141
11 march, thu
thu1100:00−24w3410056 0.0 102180
03:00−24wsw4610075 0.0 102193
06:00−22w4109889 0.1 1019277
09:00−18wnw5109694 0.4 1019452
12:00−12wnw6989100 0.1 1019644
15:00−9nw6988100 0.2 1020766
18:00−10wnw4895100 0.1 1021214
21:00−12wnw41093100 0.1 1023235